Preview of NWS' New Version of Forecast
This preview is not operational and should not be used for support decisions.

Regional Weather Roundup (RWR)

Issued by Wakefield, VA (AKQ)

                            
451 
ASUS41 KAKQ 212314
RWRAKQ

REGIONAL WEATHER ROUNDUP
NATIONAL WEATHER SERVICE WAKEFIELD VA
700 PM EDT THU JUN 21 2018

Note: "fair" indicates few or no clouds below 12,000 feet with no
significant weather and/or obstructions to visibility. * = Denotes
station may not report precipitation (e.g., rain,snow,etc.),
thunder or fog.

VAZ042-051-052>054-056-220000-
NORTHERN VIRGINIA
  
CITY           SKY/WX    TMP DP  RH WIND       PRES   REMARKS
WASH NATIONAL  CLOUDY    81  68  64 NE7       29.78R                  
DULLES         PTSUNNY   77  68  73 NE6       29.79R                  
FORT BELVOIR   FAIR      79  71  75 CALM      29.78R                  
QUANTICO       FAIR      81  70  69 NE8       29.79R                  
FREDERICKSBRG* PTSUNNY   81  72  73 NE5       29.77R                  
STAFFORD*      FAIR      81  72  74 N5        29.83R                  
WARRENTON      CLOUDY    80  67  66 NE5       29.79R                  
CULPEPER*      CLOUDY    78  70  74 N3        29.80R                  
MANASSAS*      CLOUDY    79  68  69 NE6       29.80R                  
LEESBURG*      FAIR      79  70  73 NE5       29.81R                  
WINCHESTER     PTSUNNY   72  64  78 CALM      29.84R                  
FRONT ROYAL*   CLOUDY    73  70  88 NE3       29.81R                  
LURAY*         DRIZZLE   73  70  88 N6        29.81R                  
$$

VAZ048-049-060>072-079>083-220000-
CENTRAL AND SOUTH CENTRAL VIRGINIA
  
CITY           SKY/WX    TMP DP  RH WIND       PRES   REMARKS
RICHMOND       PTSUNNY   83  73  72 NE3       29.76R                  
CHESTERFIELD*  FAIR      82  73  74 N3        29.77R                  
PETERSBURG*    FAIR      81  72  75 NE5       29.76R                  
HANOVER        FAIR      80  74  81 CALM      29.78R                  
TAPPAHANNOCK*  FAIR      82  75  81 NE5       29.78R                  
QUINTON*       FAIR      81  77  85 CALM      29.75R                  
CHARLOTTSVILLE LGT RAIN  75  73  93 N5        29.81S                  
GORDONSVILLE*  FOG       73  73 100 CALM      29.81R VSB 1/4          
ORANGE*        HVY RAIN  73  72  94 SW5       29.80R                  
LOUISA*        RAIN      75  74  98 NW6       29.84R FOG              
BUMPASS*       MOCLDY    76  75  95 CALM      29.78R                  
FARMVILLE*     PTSUNNY   73  72  96 NE8       29.78S                  
CREWE*         CLOUDY    74  74 100 W5        29.80R                  
FORT PICKETT*  MOCLDY    74  74 100 E9G16     29.78R                  
CHASE CITY*    MOCLDY    78  78 100 N5        29.76R                  
CLARKSVILLE*   FAIR      84  73  70 MISG      29.75R                  
SOUTH HILL*    FAIR      84  78  80 CALM      29.81R HX  95           
LAWRENCEVILLE* FAIR      86  74  67 CALM      29.75R                  
EMPORIA*       FAIR      84  77  79 NW8       29.76R                  
$$

VAZ088>098-220000-
SOUTHEAST VIRGINIA
  
CITY           SKY/WX    TMP DP  RH WIND       PRES   REMARKS
NORFOLK        FAIR      87  76  69 E6        29.74R HX  97           
VIRGINIA BEACH PTSUNNY   81  73  76 SE7       29.74R                  
NORFOLK NAVAL  PTSUNNY   85  72  65 E7        29.76R                  
WEST POINT*    FAIR      80  74  82 NE8       29.77R                  
SALUDA*        MOCLDY    81  77  89 CALM      29.76R                  
NEWPORT NEWS   FAIR      82  73  74 E10       29.76R                  
LANGLEY AFB    PTSUNNY   83  75  76 SE9       29.76R                  
FORT EUSTIS    NOT AVBL                                               
WILLIAMSBURG*  FAIR      84  73  70 CALM      29.76R                  
HR EXEC AP*    FAIR      83  76  79 NE3       29.75R                  
FRANKLIN*      FAIR      86  74  66 NE3       29.74R                  
US460-WAKEFLD  FAIR      84  75  74 CALM      29.75R                  
$$

VAZ020-022-025-037-045-220000-
WEST CENTRAL AND SOUTHWEST VIRGINIA
  
CITY           SKY/WX    TMP DP  RH WIND       PRES   REMARKS
STAUNTON*      FAIR      72  70  92 CALM      29.84S                  
WAYNESBORO*    MOCLDY    73  72  99 E3        29.83S                  
HOT SPRINGS VA LGT RAIN  69  69 100 CALM      29.94S                  
LYNCHBURG      CLOUDY    81  69  67 CALM      29.79S                  
DANVILLE       FAIR      81  74  79 NW6       29.76S                  
SOUTH BOSTON*  FAIR      77  74  93 NW3       29.76S                  
MARTINSVILLE   FAIR      79  71  78 CALM      29.81S                  
ROANOKE        PTSUNNY   82  68  62 CALM      29.81S                  
BLACKSBURG     CLOUDY    76  70  82 CALM      29.88S                  
DUBLIN*        CLOUDY    78  68  70 W3        29.86S                  
MARION*        CLOUDY    73  70  92 W9        29.91S                  
HILLSVILLE*    CLOUDY    75  66  73 SW7       29.87S                  
RICHLANDS*     CLOUDY    69  66  88 SW6       29.89S                  
WISE*          CLOUDY    72  72 100 SW9       29.90S                  
ABINGDON*      CLOUDY    73  71  92 NW5       29.87F                  
$$

MDZ021>025-VAZ099-100-220000-
SOUTHERN MARYLAND AND THE DELMARVA PENINSULA
  
CITY           SKY/WX    TMP DP  RH WIND       PRES   REMARKS
PATUXENT RIVER PTSUNNY   82  69  64 N10       29.77R                  
BAY BRIDGE APT FAIR      79  70  73 NE3       29.78S                  
LEONARDTOWN    FAIR      77  68  73 CALM      29.80R                  
DOVER          PTSUNNY   76  68  76 E6        29.78S                  
GEORGETOWN     FAIR      75  68  78 E7        29.80S                  
EASTON         CLOUDY    81  68  65 E7        29.82R                  
CAMBRIDGE      CLOUDY    81  70  69 VRB5      29.78R                  
SALISBURY      CLOUDY    75  71  87 E8        29.79R                  
TANGIER        CLOUDY    81  77  89 E10       29.77R                  
OCEAN CITY     CLOUDY    73  68  84 NE10      29.81R                  
WALLOPS ISLAND PTSUNNY   76  71  85 NE14      29.79R                  
ACCOMACK*      FAIR      78  73  85 NE8       29.78R                  
$$

NCZ012>017-030>032-220000-
NORTH CENTRAL AND EASTERN NORTH CAROLINA
  
CITY           SKY/WX    TMP DP  RH WIND       PRES   REMARKS
ROANOKE RAPIDS FAIR      86  73  66 CALM      29.73S                  
RALEIGH        PTSUNNY   87  73  62 W3        29.76S                  
ELIZABETH CITY FAIR      83  76  79 E8        29.74F                  
AHOSKIE*       FAIR      83  78  86 MISG      29.73S                  
EDENTON*       FAIR      91  77  63 CALM      29.74S HX 104           
CURRITUCK*     PTSUNNY   75  70  85 MISG      29.76S                  
KILL DEVIL HLS FAIR      80  74  80 CALM      29.74S                  
MANTEO         FAIR      83  75  77 E5        29.75S                  
CAPE HATTERAS  FAIR      84  80  88 SW12G20   29.76R HX  97           
TARBORO*       NOT AVBL                                               
GOLDSBORO      FAIR      94  71  47 W7        29.72S HX 101           
WASHINGTON     PTSUNNY   90  73  58 SW7       29.73R HX  98           
GREENVILLE     FAIR      91  68  46 NW3       29.76R HX  95           
NEW BERN       FAIR      85  79  82 SE8       29.75R HX  98           
WILMINGTON     FAIR      89  77  67 S9        29.76R HX 101           
$$

VAZ048-220000-
ELSEWHERE
  
CITY           SKY/WX    TMP DP  RH WIND       PRES   REMARKS
HARRISBURG PA  PTSUNNY   83  53  35 NE5       29.78S                  
BALTIMORE      PTSUNNY   79  68  69 E8        29.77S                  
ANNAPOLIS      FAIR      81  69  67 VRB3      29.78R                  
ANDREWS AFB    FAIR      78  69  73 NE5       29.78R                  
PHILADELPHIA   PTSUNNY   81  62  52 CALM      29.77R                  
HENDERSON NC     N/A     83  70  63 W3        29.75S                  
GREENSBORO     PTSUNNY   86  68  54 SW8       29.77S                  
ROCKY MOUNT    FAIR      88  72  58 W5        29.74R                  
$$

VAZ100-220000-
MARINE
  
STATION/POSITION TIME  TEMP    WIND        PRES    WAVE   SWELL
                       AIR SEA DIR/SP/G            HT/PER HT/PER
                 (UTC) (F)     (DEG/KT/KT) (MB)    (FT/S) (FT/S)
BRANDYWINE LGT   2242   71     140/  9/  9 1009.2R
CAPE MAY NJ      2248   73 71  110/  5/  6 1008.3R
LEWES DE         2248   71 74  120/  6/  8 1009.0R
15NM E FENWICK I 2250   70 72   40/ 10/ 12 1009.2R   2/ 4   2/ 6
OCEAN-CITY-INLET 2248   73 69   80/  6/ 10 1009.6R
WACHAPREAGUE VA  2248   76 87   50/ 14/ 17 1008.4R
THOMAS POINT MD  2300   77 77   40/ 10/ 10 1009.3R
GOOSES REEF MD   2300   79 79   10/ 10/ 12 1008.3    1/ 2
COVE POINT MD    2248   78      30/ 12/ 13 1008.8R
SOLOMONS ISLAND  2248   78 79   10/  3/  6 1008.1R
BISHOPS HEAD MD  2248   78      80/ 12/ 15 1008.8R
PINEY POINT MD   2242           70/  4/  5   N/A
CAMBRIDGE MD     2248   81 84              1009.4R
LEWISETTA VA     2248   80 82   40/  6/ 10 1008.4R
RAPPAHANNOCK LGT 2248           10/  9/ 11 1008.5R
STINGRAY PT      2300   81 84   50/ 12/ 14 1007.9    1/ 2
YORK RVR RNG VA  2248   82      70/ 12/ 13 1008.3R
YORKTOWN VA      2248   82 81   70/ 12/ 13 1007.3R
DOMINION TERM VA 2248   84      50/  3/  6 1007.5R
KIPTOPEKE VA     2248      80  110/  3/  5   N/A
CAPE HENRY VA    2248   81     120/  7/  9 1006.0R
WILLOUBY STN VA  2248   81      90/  9/ 11 1006.6R
S CRANEY ISL VA  2248   85      70/  8/  9 1007.0R
CAPE HENRY BUOY  2300      80                N/A     1/ 8
1ST LANDING BUOY 2300   80 79  130/  8/ 10 1007.2    1
64NM E OF VA BCH 2250   79 80  120/  2/  4 1008.6R   2/ 8   2/ 8
DUCK PIER NC     2248   77 82   50/  4/  5 1006.9F
44100 DUCK FRF   2145      82                N/A     1/ 8
44056 DUCK FRF   2300      82                N/A     1/ 8
OREGON INLET NC  2242   86 86   60/  3/  5 1007.1R
HATTERAS NC      2248   83 84  210/ 11/ 16 1007.5R
DIAMOND SHLS NC  2300   82 82  220/ 16/ 17 1008.1
CAPE LOOKOUT NC  2300          210/ 14/ 17 1008.0R
$$